Change the Weather History Date:

Monday, December 31, 2012

  Actual Average Record
Temperature  
Mean Temperature 37 °F -  
Max Temperature 39 °F 43 °F 57 °F (1958)
Min Temperature 35 °F 33 °F 16 °F (1968)
Degree Days  
Heating Degree Days 28    
Moisture  
Dew Point 35 °F    
Average Humidity 90    
Maximum Humidity 96    
Minimum Humidity 82    
Precipitation  
Precipitation 0.01 in - - ()
Sea Level Pressure  
Sea Level Pressure 30.33 in    
Wind  
Wind Speed 3 mph (SSE)    
Max Wind Speed 8 mph    
Max Gust Speed -    
Visibility 10 miles    
Events Rain    
Averages and records for this station are not official NWS values.
T = Trace of Precipitation, MM = Missing Value Source: NWS Daily Summary

Daily Weather History Graph

Daily Weather History Graph

Search for Another Location

Airport or City:

Trip Planner

Search our weather history database for the weather conditions in past years. The results will help you decide how hot, cold, wet, or windy it might be!

Date:

Astronomy

Dec. 31, 2012 Rise Set
Actual Time 8:04 AM PST 4:30 PM PST
Civil Twilight 7:28 AM PST 5:06 PM PST
Nautical Twilight 6:48 AM PST 5:46 PM PST
Astronomical Twilight 6:10 AM PST 6:24 PM PST
Moon 8:24 PM PST (12/31) 9:32 AM PST (12/31)
Length of Visible Light 9h 38m
Length of Day
8h 26m
Waning Gibbous, 89% of the Moon is Illuminated
Dec 31
Waning Gibbous
Jan 4
Last Quarter
Jan 11
New
Jan 18
First Quarter
Jan 26
Full

Hourly Weather History & Observations

Time (PST) Temp. Windchill Dew Point Humidity Pressure Visibility Wind Dir Wind Speed Gust Speed Precip Events Conditions
12:53 AM 36.0 °F 33.3 °F 34.0 °F 93% 30.28 in 10.0 mi SSE 3.5 mph - N/A   Overcast
1:36 AM 36.0 °F - 34.0 °F 93% 30.27 in 10.0 mi Calm Calm - N/A   Overcast
1:53 AM 35.1 °F 31.0 °F 33.1 °F 92% 30.28 in 10.0 mi WSW 4.6 mph - N/A   Overcast
2:20 AM 36.0 °F - 34.0 °F 93% 30.27 in 10.0 mi Calm Calm - N/A   Overcast
2:53 AM 35.1 °F 31.0 °F 33.1 °F 92% 30.28 in 10.0 mi SW 4.6 mph - N/A   Partly Cloudy
3:53 AM 35.1 °F - 33.1 °F 92% 30.27 in 10.0 mi Calm Calm - N/A   Clear
4:26 AM 35.1 °F - 34.0 °F 96% 30.24 in 10.0 mi Calm Calm - N/A   Mostly Cloudy
4:40 AM 35.1 °F 32.2 °F 34.0 °F 96% 30.24 in 10.0 mi SW 3.5 mph - N/A   Mostly Cloudy
4:53 AM 36.0 °F 33.3 °F 34.0 °F 93% 30.25 in 10.0 mi SSW 3.5 mph - N/A   Mostly Cloudy
5:53 AM 36.0 °F 32.1 °F 34.0 °F 93% 30.25 in 10.0 mi WSW 4.6 mph - N/A   Overcast
6:32 AM 37.0 °F 33.3 °F 34.0 °F 89% 30.25 in 10.0 mi WSW 4.6 mph - N/A   Overcast
6:53 AM 37.0 °F - 34.0 °F 89% 30.27 in 10.0 mi Calm Calm - N/A   Overcast
7:11 AM 37.0 °F 32.4 °F 34.0 °F 89% 30.25 in 10.0 mi SW 5.8 mph - N/A   Overcast
7:53 AM 37.0 °F 33.3 °F 34.0 °F 89% 30.27 in 10.0 mi SW 4.6 mph - N/A   Overcast
8:15 AM 37.0 °F 34.5 °F 35.1 °F 93% 30.27 in 10.0 mi WSW 3.5 mph - N/A   Overcast
8:53 AM 37.9 °F - 35.1 °F 89% 30.29 in 10.0 mi Calm Calm - 0.00 in Rain Light Rain
9:53 AM 37.0 °F 34.5 °F 35.1 °F 93% 30.31 in 7.0 mi WSW 3.5 mph - 0.00 in Rain Light Rain
10:53 AM 37.0 °F - 35.1 °F 93% 30.33 in 10.0 mi Calm Calm - 0.01 in Rain Light Rain
11:53 AM 39.0 °F 35.7 °F 36.0 °F 89% 30.33 in 10.0 mi East 4.6 mph - 0.00 in Rain Light Rain
12:30 PM 39.0 °F 35.7 °F 36.0 °F 89% 30.31 in 10.0 mi ESE 4.6 mph - 0.00 in Rain Light Rain
12:50 PM 39.2 °F 35.9 °F 35.6 °F 87% 30.30 in 10.0 mi SE 4.6 mph - 0.00 in Rain Light Rain
12:53 PM 39.0 °F 35.7 °F 36.0 °F 89% 30.32 in 10.0 mi ESE 4.6 mph - 0.00 in Rain Light Rain
1:06 PM 39.0 °F 34.8 °F 36.0 °F 89% 30.31 in 10.0 mi East 5.8 mph - 0.00 in   Overcast
1:29 PM 39.0 °F 34.0 °F 36.0 °F 89% 30.31 in 10.0 mi East 6.9 mph - 0.00 in   Overcast
1:53 PM 39.0 °F 33.4 °F 35.1 °F 86% 30.32 in 10.0 mi East 8.1 mph - 0.00 in   Overcast
2:14 PM 39.0 °F 35.7 °F 35.1 °F 86% 30.32 in 10.0 mi East 4.6 mph - N/A   Overcast
2:50 PM 39.2 °F 35.0 °F 35.6 °F 87% 30.33 in 10.0 mi ESE 5.8 mph - N/A   Overcast
2:53 PM 39.0 °F 34.0 °F 36.0 °F 89% 30.35 in 10.0 mi ESE 6.9 mph - N/A   Overcast
3:53 PM 37.9 °F 35.5 °F 36.0 °F 93% 30.37 in 10.0 mi South 3.5 mph - N/A   Overcast
4:53 PM 37.9 °F - 35.1 °F 89% 30.38 in 10.0 mi Calm Calm - 0.00 in Rain Light Rain
5:53 PM 37.9 °F - 35.1 °F 89% 30.38 in 10.0 mi Calm Calm - 0.00 in   Overcast
6:13 PM 37.9 °F - 35.1 °F 89% 30.38 in 10.0 mi Calm Calm - N/A   Overcast
6:21 PM 37.9 °F - 36.0 °F 93% 30.38 in 10.0 mi Calm Calm - N/A   Overcast
6:53 PM 37.9 °F 35.5 °F 36.0 °F 93% 30.40 in 10.0 mi South 3.5 mph - N/A   Overcast
7:36 PM 37.9 °F 34.4 °F 36.0 °F 93% 30.40 in 10.0 mi SE 4.6 mph - N/A   Overcast
7:53 PM 37.4 °F 34.9 °F 35.6 °F 93% 30.40 in 10.0 mi SE 3.5 mph - N/A   Overcast
8:15 PM 37.9 °F 35.5 °F 36.0 °F 93% 30.40 in 10.0 mi East 3.5 mph - N/A   Overcast
8:37 PM 39.0 °F - 36.0 °F 89% 30.40 in 10.0 mi Calm Calm - N/A   Overcast
8:53 PM 39.0 °F - 35.1 °F 86% 30.42 in 10.0 mi Calm Calm - N/A   Overcast
9:53 PM 39.2 °F - 35.6 °F 87% 30.43 in 10.0 mi Calm Calm - N/A   Overcast
10:53 PM 39.0 °F - 34.0 °F 82% 30.46 in 10.0 mi Calm Calm - N/A   Overcast
11:53 PM 39.0 °F 35.7 °F 35.1 °F 86% 30.45 in 10.0 mi South 4.6 mph - N/A   Overcast